This is the latest recevied weather packets stored in our database for station/object EA7JCM-13. If no packets are shown the sender has not sent any weather packets the latest 10 day(s).
| Time | Temp. | Humidity | Pressure | Rain* | Wind** | Luminosity | Snow |
|---|---|---|---|---|---|---|---|
| 1778021102 | 12.78° C | 59% | 1010 hPa | 0 mm | - | - | - |
| 1778020803 | 12.78° C | 59% | 1009.9 hPa | 0 mm | - | - | - |
| 1778020502 | 12.78° C | 59% | 1010 hPa | 0 mm | - | - | - |
| 1778020202 | 12.78° C | 58% | 1010.1 hPa | 0 mm | - | - | - |
| 1778019903 | 13.33° C | 57% | 1010.2 hPa | 0 mm | - | - | - |
| 1778019603 | 13.33° C | 58% | 1010.1 hPa | 0 mm | - | - | - |
| 1778019303 | 12.78° C | 58% | 1009.8 hPa | 0 mm | - | - | - |
| 1778019003 | 13.33° C | 58% | 1010.1 hPa | 0 mm | - | - | - |
| 1778018702 | 13.33° C | 57% | 1009.9 hPa | 0 mm | - | - | - |
| 1778018406 | 13.33° C | 57% | 1009.8 hPa | 0 mm | - | - | - |
| 1778018102 | 13.89° C | 56% | 1009.8 hPa | 0 mm | - | - | - |
| 1778017802 | 13.33° C | 57% | 1010 hPa | 0 mm | - | - | - |
| 1778017503 | 13.33° C | 57% | 1010 hPa | 0 mm | - | - | - |
| 1778017202 | 13.89° C | 57% | 1010 hPa | 0 mm | - | - | - |
| 1778016903 | 13.89° C | 57% | 1010.1 hPa | 0 mm | - | - | - |
| 1778016602 | 13.89° C | 57% | 1010.3 hPa | 0 mm | - | - | - |
| 1778016303 | 13.89° C | 56% | 1010.1 hPa | 0 mm | - | - | - |
| 1778016003 | 14.44° C | 56% | 1010 hPa | 0 mm | - | - | - |
| 1778015702 | 13.89° C | 56% | 1010 hPa | 0 mm | - | - | - |
| 1778015403 | 13.89° C | 57% | 1010 hPa | 0 mm | - | - | - |
| 1778015103 | 14.44° C | 57% | 1010 hPa | 0 mm | - | - | - |
| 1778014802 | 15° C | 54% | 1009.9 hPa | 0 mm | - | - | - |
| 1778014502 | 15.56° C | 51% | 1009.8 hPa | 0 mm | - | - | - |
| 1778014203 | 15° C | 51% | 1009.7 hPa | 0 mm | - | - | - |
| 1778013902 | 15° C | 53% | 1009.9 hPa | 0 mm | - | - | - |
* Rain latest hour (hover to see other rain measurements)
** Current wind speed in m/s (hover to see current wind gust speed)